Find Starlink 3518

NORAD ID: 51732 Int'l Des: 2022-016 Owner: SPXS Country: US Constellation: starlink operational
LEOCIRCULAR

Current View

Loading 3D Globe...

About Starlink 3518

Starlink 3518 (NORAD 51732) is a starlink constellation satellite (v1.5) launched Feb 21, 2022 by SPXS of US. It operates in LEO, CIRCULAR orbit with a mass of 297.00 kg.

About Starlink 3518

Description loading...

Upcoming Passes

Passes for default location (London). Set your location on the main map for personalized predictions.

Altitude History

Loading altitude history...

Two-Line Element Set

1 51732U 22016U 26168.48695537 .00000402 00000-0 43343-4 0 9996
2 51732 53.1589 231.0166 0001119 92.1514 267.9606 15.08831777239775
Epoch: Jun 17, 2026 • Age: 19 hours

Current Status

Altitude 552.7 km
Velocity 7.58 km/s
Sub-Earth Point -38.00°S, 172.78°W
Launch Date Feb 21, 2022
Age 4.3 years
Type internet

Technical Details

Classification Payload
Mass 297.00 kg
Dry Mass 275.00 kg
Total Mass 297.00 kg
Length 0.20 m
Diameter 2.80 m
Span 9.00 m
Shape Box + pan
Manufacturer SPXS
Bus Type Starlink
Phase Status In Orbit
Owner/State SPXS/US

Most Searched